Вернуться в каталог

KUIPER-00260

АктивенСвязьLEO
NORAD 67787·PAYLOAD·🇺🇸 United States

Запущен Feb 12, 2026 с Guiana Space Centre

Loading…

Ближайшие Пролёты (ближайшие 24 часа)

TLE

СвежийSource: CelesTrak SupGP

Эпоха: Sep 14, 2026, 22:46 UTC

1 67787C 26030Z   26257.94907407  .00007254  00000+0  94974-3 0  2578
2 67787  51.8997  78.8103 0000880 114.5228 203.9939 14.79914614    14

Отслеживайте KUIPER-00260 в реальном времени с AllMySat

Download on the App Store